This is the latest recevied weather packets stored in our database for station/object N1ORT. If no packets are shown the sender has not sent any weather packets the latest 10 day(s).
| Time | Temp. | Humidity | Pressure | Rain* | Wind** | Luminosity | Snow |
|---|---|---|---|---|---|---|---|
| 1777390252 | 14.44° C | 46% | 1021.5 hPa | 0 mm | - | 918 W/m² | - |
| 1777389947 | 15° C | 47% | 1021.5 hPa | 0 mm | - | 913 W/m² | - |
| 1777389645 | 14.44° C | 48% | 1021.7 hPa | 0 mm | - | 908 W/m² | - |
| 1777389341 | 14.44° C | 46% | 1021.6 hPa | 0 mm | - | 902 W/m² | - |
| 1777389039 | 14.44° C | 47% | 1021.7 hPa | 0 mm | - | 891 W/m² | - |
| 1777388736 | 15° C | 46% | 1021.7 hPa | 0 mm | - | 883 W/m² | - |
| 1777388433 | 15° C | 47% | 1021.8 hPa | 0 mm | - | 878 W/m² | - |
| 1777388131 | 14.44° C | 47% | 1021.8 hPa | 0 mm | - | 868 W/m² | - |
| 1777387828 | 15° C | 49% | 1021.7 hPa | 0 mm | - | 860 W/m² | - |
| 1777387525 | 15° C | 50% | 1021.6 hPa | 0 mm | - | 848 W/m² | - |
| 1777387220 | 14.44° C | 53% | 1021.5 hPa | 0 mm | - | 838 W/m² | - |
| 1777386915 | 14.44° C | 51% | 1021.5 hPa | 0 mm | - | 827 W/m² | - |
| 1777386613 | 14.44° C | 55% | 1021.5 hPa | 0 mm | - | 820 W/m² | - |
| 1777386310 | 13.89° C | 54% | 1021.5 hPa | 0 mm | - | 809 W/m² | - |
| 1777386008 | 14.44° C | 53% | 1021.5 hPa | 0 mm | - | 801 W/m² | - |
| 1777385704 | 13.33° C | 55% | 1021.6 hPa | 0 mm | - | 787 W/m² | - |
| 1777385401 | 13.33° C | 54% | 1021.4 hPa | 0 mm | - | 775 W/m² | - |
| 1777385097 | 13.33° C | 56% | 1021.7 hPa | 0 mm | - | 763 W/m² | - |
| 1777384793 | 13.33° C | 56% | 1021.7 hPa | 0 mm | - | 751 W/m² | - |
| 1777384490 | 13.33° C | 57% | 1021.6 hPa | 0 mm | - | 737 W/m² | - |
| 1777384184 | 13.89° C | 55% | 1021.6 hPa | 0 mm | - | 724 W/m² | - |
| 1777383881 | 13.33° C | 58% | 1021.4 hPa | 0 mm | - | 708 W/m² | - |
| 1777383577 | 12.22° C | 59% | 1021.7 hPa | 0 mm | - | 694 W/m² | - |
| 1777383274 | 12.78° C | 58% | 1021.6 hPa | 0 mm | - | 678 W/m² | - |
| 1777382970 | 12.78° C | 59% | 1021.5 hPa | 0 mm | - | 663 W/m² | - |
* Rain latest hour (hover to see other rain measurements)
** Current wind speed in m/s (hover to see current wind gust speed)